QPF
0.01 0.01 0.01 0.02 0.03 0.02 0.01 0.01 0.01 0.01 0.01 0.02 0.03 0.04 0.07 0.10 0.07 0.06 0.06 0.07 0.07 0.07 0.07 0.05 0.06 0.06 0.06 0.07 0.07 0.08 0.10 0.10 0.09 0.09 0.06 0.06 0.04 0.04 0.04 0.03 0.03 0.03 0.04
0.04 0.03 0.01 0.01 0.01 0.01 0.01 0.00 0.01 0.01 0.02 0.03 0.03 0.02 0.04 0.05 0.07 0.06 0.06 0.07 0.07 0.07 0.06 0.05 0.05 0.06 0.06 0.07 0.07 0.08 0.08 0.08 0.08 0.07 0.06 0.05 0.04 0.03 0.04 0.03 0.02 0.02 0.02
0.02 0.02 0.01 0.01 0.01 0.01 0.00 0.00 0.00 0.01 0.01 0.02 0.01 0.01 0.02 0.03 0.04 0.05 0.06 0.07 0.07 0.07 0.07 0.06 0.06 0.06 0.05 0.05 0.05 0.06 0.06 0.05 0.06 0.07 0.05 0.04 0.04 0.04 0.04 0.03 0.03 0.03 0.03
0.01 0.01 0.01 0.01 0.01 0.01 0.00 0.01 0.01 0.01 0.00 0.00 0.00 0.00 0.01 0.01 0.01 0.01 0.02 0.03 0.03 0.04 0.04 0.04 0.04 0.04 0.04 0.04 0.03 0.03 0.04 0.05 0.06 0.07 0.06 0.06 0.06 0.06 0.07 0.06 0.06 0.06 0.07
0.01 0.01 0.01 0.01 0.01 0.00 0.00 0.01 0.00 0.00 0.00 0.00 0.00 0.00 0.01 0.01 0.00 0.00 0.01 0.01 0.02 0.02 0.02 0.02 0.02 0.03 0.02 0.02 0.02 0.03 0.03 0.05 0.06 0.06 0.05 0.05 0.06 0.07 0.07 0.09 0.10 0.10 0.09
0.01 0.01 0.01 0.00 0.00 0.00 0.00 0.00 0.00 0.00 0.00 0.00 0.00 0.00 0.00 0.00 0.00 0.00 0.01 0.01 0.01 0.01 0.01 0.01 0.01 0.02 0.01 0.01 0.01 0.01 0.02 0.03 0.03 0.03 0.03 0.04 0.07 0.09 0.09 0.09 0.08 0.08 0.07
0.01 0.01 0.01 0.01 0.01 0.00 0.01 0.01 0.00 0.00 0.00 0.00 0.00 0.00 0.00 0.00 0.01 0.01 0.01 0.01 0.01 0.01 0.01 0.01 0.01 0.01 0.01 0.01 0.01 0.01 0.02 0.02 0.02 0.03 0.03 0.04 0.07 0.08 0.07 0.05 0.05 0.05 0.06
0.01 0.01 0.01 0.01 0.01 0.01 0.02 0.02 0.02 0.02 0.01 0.00 0.00 0.00 0.01 0.00 0.01 0.01 0.01 0.01 0.01 0.01 0.01 0.01 0.01 0.01 0.01 0.01 0.01 0.01 0.01 0.01 0.02 0.02 0.03 0.04 0.05 0.05 0.04 0.04 0.04 0.04 0.04
0.01 0.01 0.01 0.01 0.01 0.01 0.02 0.02 0.03 0.02 0.02 0.01 0.00 0.00 0.01 0.00 0.00 0.01 0.01 0.01 0.01 0.01 0.01 0.01 0.01 0.01 0.02 0.02 0.01 0.01 0.02 0.02 0.02 0.02 0.03 0.03 0.05 0.05 0.05 0.04 0.03 0.02 0.02
0.01 0.01 0.01 0.01 0.02 0.01 0.01 0.01 0.01 0.02 0.02 0.02 0.01 0.01 0.01 0.00 0.01 0.01 0.01 0.01 0.01 0.01 0.01 0.02 0.03 0.03 0.03 0.03 0.03 0.02 0.02 0.02 0.02 0.04 0.04 0.03 0.02 0.02 0.03 0.02 0.02 0.02 0.02
0.01 0.01 0.01 0.02 0.01 0.01 0.01 0.01 0.01 0.01 0.01 0.01 0.01 0.01 0.00 0.00 0.01 0.01 0.01 0.01 0.01 0.01 0.01 0.02 0.06 0.07 0.05 0.03 0.04 0.03 0.03 0.04 0.04 0.05 0.06 0.04 0.03 0.02 0.02 0.02 0.01 0.01 0.01
0.02 0.01 0.01 0.01 0.01 0.01 0.01 0.01 0.01 0.00 0.01 0.01 0.01 0.01 0.01 0.00 0.00 0.00 0.01 0.01 0.01 0.02 0.01 0.02 0.03 0.03 0.03 0.02 0.02 0.03 0.03 0.03 0.03 0.04 0.03 0.03 0.03 0.03 0.02 0.01 0.01 0.01 0.02
0.01 0.01 0.01 0.01 0.01 0.01 0.02 0.01 0.01 0.01 0.01 0.01 0.01 0.01 0.01 0.01 0.01 0.01 0.00 0.01 0.01 0.01 0.01 0.02 0.03 0.05 0.03 0.02 0.02 0.03 0.03 0.03 0.03 0.03 0.02 0.02 0.03 0.03 0.02 0.02 0.02 0.02 0.02
0.01 0.01 0.01 0.01 0.01 0.01 0.01 0.01 0.01 0.01 0.01 0.01 0.01 0.01 0.01 0.01 0.02 0.01 0.00 0.00 0.01 0.01 0.01 0.01 0.01 0.03 0.03 0.02 0.02 0.02 0.03 0.03 0.03 0.02 0.02 0.02 0.02 0.02 0.02 0.02 0.02 0.01 0.02
0.02 0.02 0.01 0.01 0.01 0.01 0.01 0.01 0.01 0.01 0.01 0.01 0.02 0.01 0.01 0.02 0.02 0.01 0.01 0.01 0.00 0.01 0.01 0.01 0.01 0.02 0.02 0.02 0.02 0.03 0.04 0.04 0.04 0.03 0.02 0.02 0.01 0.01 0.01 0.01 0.01 0.01 0.02
0.02 0.02 0.01 0.01 0.01 0.01 0.01 0.01 0.01 0.02 0.01 0.01 0.01 0.01 0.01 0.01 0.01 0.01 0.01 0.01 0.00 0.01 0.00 0.00 0.00 0.01 0.01 0.01 0.01 0.01 0.02 0.03 0.02 0.02 0.01 0.01 0.01 0.01 0.01 0.01 0.01 0.01 0.01
0.02 0.02 0.02 0.01 0.01 0.01 0.01 0.01 0.01 0.01 0.01 0.01 0.01 0.01 0.01 0.02 0.02 0.02 0.02 0.01 0.00 0.00 0.00 0.00 0.00 0.00 0.01 0.01 0.01 0.01 0.01 0.01 0.01 0.01 0.01 0.01 0.01 0.00 0.01 0.01 0.01 0.01 0.01
0.03 0.03 0.03 0.02 0.02 0.02 0.02 0.02 0.01 0.01 0.01 0.02 0.01 0.02 0.02 0.02 0.02 0.02 0.02 0.01 0.00 0.00 0.00 0.00 0.00 0.00 0.00 0.00 0.00 0.00 0.00 0.00 0.00 0.00 0.00 0.00 0.00 0.00 0.00 0.00 0.01 0.01 0.01
0.03 0.02 0.02 0.02 0.02 0.02 0.02 0.02 0.02 0.01 0.01 0.01 0.01 0.01 0.02 0.02 0.02 0.02 0.02 0.01 0.01 0.01 0.01 0.01 0.00 0.00 0.00 0.00 0.00 0.00 0.00 0.00 0.00 0.00 0.00 0.00 0.00 0.01 0.00 0.00 0.01 0.01 0.01
0.02 0.02 0.02 0.02 0.02 0.03 0.03 0.02 0.02 0.02 0.01 0.01 0.01 0.01 0.01 0.02 0.01 0.01 0.01 0.01 0.01 0.01 0.01 0.01 0.01 0.00 0.00 0.00 0.00 0.00 0.00 0.00 0.00 0.01 0.01 0.01 0.01 0.01 0.01 0.01 0.01 0.01 0.01
0.02 0.02 0.03 0.03 0.03 0.03 0.02 0.02 0.02 0.02 0.03 0.03 0.02 0.02 0.01 0.01 0.01 0.01 0.01 0.01 0.01 0.01 0.01 0.01 0.01 0.01 0.00 0.00 0.00 0.00 0.00 0.00 0.00 0.00 0.01 0.01 0.01 0.01 0.01 0.01 0.01 0.01 0.01
0.03 0.02 0.03 0.03 0.03 0.03 0.02 0.02 0.02 0.03 0.03 0.02 0.02 0.02 0.02 0.01 0.01 0.01 0.01 0.01 0.01 0.01 0.01 0.01 0.01 0.01 0.01 0.01 0.01 0.01 0.01 0.00 0.00 0.00 0.01 0.01 0.01 0.01 0.01 0.01 0.01 0.01 0.01
0.04 0.03 0.03 0.03 0.03 0.03 0.02 0.02 0.02 0.02 0.01 0.02 0.02 0.03 0.03 0.02 0.02 0.02 0.02 0.02 0.01 0.01 0.01 0.01 0.01 0.01 0.01 0.01 0.01 0.01 0.01 0.01 0.01 0.01 0.01 0.01 0.01 0.01 0.01 0.01 0.01 0.01 0.01
0.05 0.05 0.04 0.03 0.04 0.04 0.03 0.03 0.02 0.02 0.01 0.02 0.02 0.03 0.03 0.02 0.02 0.02 0.01 0.01 0.01 0.01 0.01 0.01 0.01 0.01 0.01 0.01 0.01 0.01 0.01 0.01 0.01 0.01 0.01 0.01 0.01 0.01 0.01 0.02 0.02 0.02 0.02
0.05 0.04 0.04 0.04 0.04 0.04 0.04 0.03 0.03 0.02 0.02 0.02 0.02 0.02 0.01 0.01 0.01 0.01 0.01 0.01 0.01 0.01 0.01 0.01 0.01 0.01 0.01 0.01 0.01 0.01 0.01 0.02 0.02 0.02 0.02 0.02 0.02 0.02 0.02 0.02 0.03 0.03 0.04
0.03 0.03 0.03 0.03 0.03 0.03 0.03 0.03 0.02 0.02 0.02 0.01 0.01 0.01 0.01 0.01 0.01 0.02 0.02 0.01 0.01 0.01 0.01 0.01 0.01 0.01 0.01 0.00 0.01 0.01 0.01 0.01 0.02 0.02 0.02 0.02 0.02 0.02 0.02 0.02 0.03 0.04 0.04
MSLP
1019.79 1020.06 1020.37 1020.67 1020.92 1021.08 1021.14 1021.09 1020.97 1020.79 1020.59 1020.41 1020.26 1020.15 1020.07 1020.01 1019.94 1019.83 1019.66 1019.43 1019.16 1018.86 1018.59 1018.37 1018.25 1018.27 1018.42 1018.72 1019.13 1019.63 1020.16 1020.68 1021.15 1021.55 1021.86 1022.07 1022.21 1022.29 1022.33 1022.36 1022.38 1022.41 1022.44
1019.95 1020.24 1020.56 1020.87 1021.12 1021.30 1021.38 1021.36 1021.27 1021.13 1020.96 1020.80 1020.66 1020.56 1020.48 1020.42 1020.35 1020.25 1020.10 1019.91 1019.67 1019.40 1019.15 1018.93 1018.78 1018.74 1018.81 1019.01 1019.32 1019.71 1020.15 1020.62 1021.07 1021.47 1021.82 1022.10 1022.31 1022.46 1022.56 1022.63 1022.68 1022.72 1022.76
1020.04 1020.36 1020.69 1021.01 1021.28 1021.47 1021.58 1021.61 1021.57 1021.47 1021.35 1021.23 1021.12 1021.03 1020.97 1020.91 1020.85 1020.76 1020.64 1020.48 1020.28 1020.05 1019.83 1019.62 1019.47 1019.39 1019.40 1019.51 1019.71 1020.00 1020.34 1020.71 1021.09 1021.46 1021.79 1022.07 1022.30 1022.48 1022.61 1022.70 1022.76 1022.81 1022.87
1020.01 1020.37 1020.73 1021.07 1021.36 1021.59 1021.74 1021.82 1021.84 1021.81 1021.75 1021.68 1021.62 1021.56 1021.51 1021.47 1021.42 1021.35 1021.25 1021.12 1020.96 1020.78 1020.60 1020.42 1020.28 1020.19 1020.16 1020.21 1020.32 1020.49 1020.72 1020.99 1021.28 1021.56 1021.83 1022.07 1022.28 1022.44 1022.56 1022.66 1022.73 1022.79 1022.85
1019.81 1020.23 1020.63 1021.01 1021.34 1021.61 1021.82 1021.96 1022.05 1022.10 1022.12 1022.12 1022.11 1022.09 1022.07 1022.05 1022.01 1021.95 1021.87 1021.77 1021.65 1021.52 1021.39 1021.26 1021.15 1021.07 1021.03 1021.03 1021.07 1021.16 1021.28 1021.43 1021.61 1021.79 1021.97 1022.14 1022.28 1022.41 1022.50 1022.58 1022.65 1022.72 1022.80
1019.41 1019.90 1020.38 1020.81 1021.19 1021.52 1021.79 1022.01 1022.19 1022.32 1022.42 1022.50 1022.54 1022.57 1022.58 1022.57 1022.54 1022.49 1022.43 1022.36 1022.28 1022.19 1022.12 1022.04 1021.98 1021.93 1021.90 1021.88 1021.88 1021.89 1021.92 1021.97 1022.03 1022.11 1022.18 1022.26 1022.33 1022.40 1022.46 1022.52 1022.58 1022.65 1022.75
1018.83 1019.42 1019.96 1020.46 1020.91 1021.30 1021.65 1021.94 1022.20 1022.41 1022.59 1022.74 1022.85 1022.93 1022.97 1022.98 1022.96 1022.92 1022.87 1022.82 1022.77 1022.73 1022.71 1022.69 1022.68 1022.68 1022.67 1022.65 1022.63 1022.59 1022.55 1022.51 1022.47 1022.44 1022.42 1022.42 1022.42 1022.44 1022.46 1022.50 1022.56 1022.64 1022.74
1018.13 1018.80 1019.42 1019.99 1020.50 1020.95 1021.36 1021.73 1022.05 1022.35 1022.60 1022.82 1022.99 1023.11 1023.19 1023.22 1023.22 1023.19 1023.15 1023.12 1023.10 1023.10 1023.12 1023.16 1023.20 1023.24 1023.26 1023.26 1023.23 1023.16 1023.07 1022.97 1022.86 1022.75 1022.65 1022.57 1022.52 1022.50 1022.50 1022.53 1022.59 1022.68 1022.79
1017.37 1018.11 1018.80 1019.42 1019.98 1020.49 1020.95 1021.37 1021.76 1022.12 1022.44 1022.71 1022.94 1023.11 1023.23 1023.29 1023.31 1023.30 1023.29 1023.27 1023.28 1023.31 1023.37 1023.45 1023.53 1023.61 1023.66 1023.67 1023.64 1023.56 1023.45 1023.30 1023.14 1022.98 1022.84 1022.72 1022.63 1022.59 1022.58 1022.61 1022.68 1022.78 1022.90
1016.62 1017.41 1018.13 1018.79 1019.39 1019.93 1020.42 1020.89 1021.32 1021.73 1022.11 1022.44 1022.73 1022.95 1023.12 1023.22 1023.28 1023.31 1023.32 1023.33 1023.36 1023.42 1023.50 1023.61 1023.71 1023.81 1023.88 1023.91 1023.88 1023.80 1023.67 1023.51 1023.33 1023.15 1022.99 1022.85 1022.76 1022.71 1022.71 1022.75 1022.83 1022.93 1023.06
1015.91 1016.71 1017.45 1018.12 1018.73 1019.29 1019.81 1020.30 1020.77 1021.22 1021.65 1022.05 1022.39 1022.68 1022.91 1023.08 1023.19 1023.26 1023.31 1023.36 1023.41 1023.49 1023.58 1023.69 1023.81 1023.91 1023.98 1024.01 1023.98 1023.90 1023.78 1023.62 1023.44 1023.27 1023.11 1022.99 1022.91 1022.88 1022.89 1022.95 1023.03 1023.14 1023.26
1015.26 1016.04 1016.76 1017.43 1018.03 1018.60 1019.13 1019.64 1020.14 1020.64 1021.12 1021.57 1021.99 1022.35 1022.66 1022.90 1023.09 1023.22 1023.32 1023.41 1023.48 1023.57 1023.66 1023.76 1023.86 1023.94 1024.00 1024.02 1023.99 1023.92 1023.80 1023.66 1023.51 1023.36 1023.24 1023.15 1023.10 1023.09 1023.13 1023.20 1023.29 1023.39 1023.50
1014.65 1015.38 1016.07 1016.71 1017.30 1017.86 1018.40 1018.93 1019.46 1020.00 1020.54 1021.06 1021.56 1022.01 1022.41 1022.74 1023.01 1023.21 1023.37 1023.49 1023.59 1023.67 1023.75 1023.83 1023.90 1023.95 1023.97 1023.97 1023.94 1023.87 1023.77 1023.66 1023.54 1023.44 1023.36 1023.32 1023.31 1023.33 1023.39 1023.47 1023.57 1023.66 1023.74
1014.06 1014.73 1015.37 1015.98 1016.55 1017.10 1017.64 1018.19 1018.76 1019.34 1019.94 1020.54 1021.12 1021.66 1022.15 1022.58 1022.93 1023.21 1023.43 1023.59 1023.70 1023.78 1023.84 1023.88 1023.90 1023.91 1023.90 1023.87 1023.82 1023.76 1023.69 1023.61 1023.55 1023.50 1023.48 1023.48 1023.52 1023.58 1023.66 1023.75 1023.84 1023.92 1023.98
1013.49 1014.09 1014.67 1015.23 1015.78 1016.33 1016.88 1017.45 1018.05 1018.69 1019.34 1020.01 1020.67 1021.30 1021.88 1022.39 1022.82 1023.17 1023.44 1023.63 1023.75 1023.82 1023.85 1023.85 1023.83 1023.79 1023.75 1023.69 1023.64 1023.59 1023.55 1023.52 1023.51 1023.52 1023.55 1023.61 1023.69 1023.78 1023.88 1023.98 1024.06 1024.13 1024.17
1012.93 1013.46 1013.98 1014.51 1015.04 1015.58 1016.14 1016.73 1017.36 1018.03 1018.74 1019.46 1020.18 1020.88 1021.53 1022.12 1022.61 1023.02 1023.32 1023.53 1023.66 1023.72 1023.72 1023.68 1023.62 1023.55 1023.48 1023.42 1023.37 1023.34 1023.34 1023.36 1023.40 1023.47 1023.56 1023.67 1023.78 1023.90 1024.02 1024.12 1024.20 1024.25 1024.28
1012.40 1012.85 1013.33 1013.82 1014.33 1014.86 1015.43 1016.04 1016.70 1017.39 1018.13 1018.89 1019.65 1020.39 1021.09 1021.71 1022.25 1022.69 1023.02 1023.24 1023.37 1023.42 1023.40 1023.35 1023.27 1023.18 1023.10 1023.05 1023.02 1023.03 1023.07 1023.14 1023.24 1023.36 1023.50 1023.64 1023.79 1023.93 1024.05 1024.15 1024.23 1024.28 1024.30
1011.89 1012.29 1012.72 1013.18 1013.68 1014.21 1014.78 1015.39 1016.05 1016.76 1017.51 1018.28 1019.05 1019.80 1020.51 1021.15 1021.70 1022.15 1022.50 1022.73 1022.86 1022.91 1022.89 1022.84 1022.76 1022.69 1022.63 1022.61 1022.62 1022.67 1022.76 1022.89 1023.04 1023.21 1023.38 1023.56 1023.72 1023.87 1023.99 1024.09 1024.17 1024.22 1024.24
1011.40 1011.75 1012.15 1012.60 1013.08 1013.60 1014.17 1014.78 1015.44 1016.14 1016.87 1017.63 1018.39 1019.12 1019.82 1020.45 1020.99 1021.44 1021.78 1022.02 1022.16 1022.23 1022.23 1022.21 1022.16 1022.13 1022.12 1022.14 1022.21 1022.32 1022.47 1022.65 1022.85 1023.05 1023.25 1023.44 1023.61 1023.75 1023.87 1023.96 1024.04 1024.09 1024.13
1010.90 1011.22 1011.60 1012.04 1012.52 1013.04 1013.60 1014.20 1014.84 1015.52 1016.23 1016.95 1017.67 1018.37 1019.03 1019.63 1020.15 1020.59 1020.93 1021.18 1021.35 1021.45 1021.50 1021.52 1021.54 1021.57 1021.63 1021.72 1021.86 1022.04 1022.25 1022.47 1022.71 1022.94 1023.15 1023.34 1023.50 1023.63 1023.73 1023.82 1023.89 1023.95 1024.00
1010.33 1010.65 1011.03 1011.47 1011.95 1012.48 1013.04 1013.63 1014.25 1014.90 1015.57 1016.24 1016.91 1017.57 1018.18 1018.75 1019.25 1019.67 1020.02 1020.29 1020.49 1020.64 1020.76 1020.85 1020.95 1021.07 1021.21 1021.39 1021.61 1021.85 1022.11 1022.38 1022.64 1022.88 1023.10 1023.28 1023.42 1023.53 1023.62 1023.69 1023.75 1023.82 1023.88
1009.65 1009.99 1010.39 1010.85 1011.36 1011.90 1012.46 1013.05 1013.65 1014.27 1014.90 1015.53 1016.15 1016.75 1017.33 1017.86 1018.34 1018.76 1019.12 1019.42 1019.67 1019.88 1020.07 1020.26 1020.45 1020.66 1020.90 1021.16 1021.45 1021.76 1022.07 1022.37 1022.64 1022.89 1023.10 1023.26 1023.38 1023.47 1023.54 1023.60 1023.65 1023.72 1023.79
1008.82 1009.20 1009.66 1010.16 1010.70 1011.26 1011.84 1012.43 1013.02 1013.62 1014.22 1014.81 1015.39 1015.95 1016.50 1017.00 1017.47 1017.90 1018.28 1018.62 1018.92 1019.21 1019.48 1019.75 1020.03 1020.33 1020.66 1021.00 1021.35 1021.71 1022.06 1022.38 1022.67 1022.91 1023.10 1023.25 1023.35 1023.42 1023.48 1023.52 1023.58 1023.64 1023.73
1007.86 1008.32 1008.83 1009.39 1009.98 1010.58 1011.18 1011.78 1012.37 1012.95 1013.52 1014.09 1014.64 1015.18 1015.69 1016.19 1016.66 1017.10 1017.50 1017.89 1018.25 1018.60 1018.95 1019.30 1019.66 1020.04 1020.43 1020.84 1021.24 1021.64 1022.01 1022.35 1022.63 1022.87 1023.05 1023.19 1023.28 1023.34 1023.39 1023.43 1023.48 1023.56 1023.65
1006.84 1007.38 1007.97 1008.60 1009.23 1009.87 1010.49 1011.10 1011.69 1012.26 1012.82 1013.37 1013.90 1014.42 1014.93 1015.42 1015.89 1016.35 1016.79 1017.22 1017.63 1018.04 1018.45 1018.86 1019.29 1019.72 1020.17 1020.61 1021.05 1021.47 1021.85 1022.20 1022.49 1022.72 1022.90 1023.02 1023.11 1023.17 1023.22 1023.27 1023.33 1023.41 1023.50
1005.85 1006.48 1007.15 1007.83 1008.51 1009.18 1009.82 1010.43 1011.02 1011.58 1012.12 1012.65 1013.17 1013.68 1014.19 1014.68 1015.17 1015.65 1016.11 1016.57 1017.03 1017.48 1017.93 1018.39 1018.86 1019.33 1019.81 1020.28 1020.73 1021.16 1021.55 1021.89 1022.18 1022.42 1022.59 1022.72 1022.81 1022.88 1022.94 1022.99 1023.06 1023.15 1023.25
Thickness
5788 5783 5779 5775 5771 5767 5763 5760 5757 5754 5751 5749 5746 5744 5742 5739 5738 5737 5736 5735 5733 5732 5731 5730 5728 5727 5726 5725 5723 5720 5718 5714 5705 5701 5697 5692 5687 5685 5682 5680 5678 5675 5671
5788 5783 5778 5774 5770 5766 5762 5759 5756 5752 5749 5746 5744 5741 5739 5736 5735 5734 5733 5732 5730 5728 5727 5726 5724 5723 5721 5719 5717 5715 5712 5709 5704 5697 5692 5687 5682 5679 5677 5675 5673 5670 5666
5788 5782 5776 5771 5767 5764 5760 5757 5754 5750 5747 5744 5741 5738 5736 5734 5732 5730 5729 5728 5727 5725 5723 5721 5719 5717 5714 5713 5710 5709 5707 5705 5701 5695 5688 5683 5678 5675 5672 5670 5667 5663 5661
5786 5781 5774 5769 5765 5761 5758 5755 5751 5747 5744 5741 5738 5735 5733 5732 5730 5727 5725 5723 5722 5720 5718 5716 5714 5712 5709 5707 5705 5703 5701 5698 5694 5690 5684 5678 5673 5669 5667 5664 5660 5657 5655
5784 5778 5773 5769 5765 5759 5755 5751 5748 5744 5742 5738 5736 5733 5731 5729 5726 5724 5722 5720 5717 5715 5713 5711 5708 5705 5703 5701 5701 5698 5695 5692 5689 5685 5680 5674 5669 5665 5662 5660 5656 5653 5648
5781 5776 5772 5767 5762 5757 5752 5748 5745 5741 5738 5735 5732 5729 5727 5725 5719 5717 5716 5716 5713 5710 5707 5705 5703 5700 5697 5693 5691 5688 5686 5685 5683 5679 5675 5670 5664 5661 5658 5655 5651 5647 5643
5778 5774 5769 5765 5759 5754 5751 5746 5742 5738 5734 5731 5728 5725 5722 5717 5713 5711 5710 5710 5708 5705 5702 5700 5699 5696 5693 5690 5685 5681 5678 5676 5674 5673 5670 5666 5661 5657 5652 5649 5645 5642 5638
5775 5771 5766 5762 5756 5751 5747 5743 5738 5734 5730 5727 5723 5721 5718 5713 5709 5706 5704 5704 5702 5699 5696 5694 5692 5689 5687 5684 5682 5678 5674 5671 5668 5666 5663 5659 5656 5651 5647 5644 5639 5635 5631
5772 5768 5764 5760 5754 5748 5743 5738 5734 5730 5726 5723 5720 5717 5713 5707 5703 5701 5700 5700 5697 5694 5691 5688 5686 5683 5677 5676 5675 5671 5668 5664 5660 5657 5654 5650 5647 5643 5640 5638 5634 5631 5627
5770 5766 5762 5757 5751 5745 5740 5735 5731 5727 5723 5721 5716 5713 5709 5704 5697 5695 5694 5697 5692 5690 5686 5682 5677 5674 5670 5668 5668 5665 5661 5659 5656 5653 5647 5644 5641 5637 5632 5630 5629 5626 5623
5768 5763 5758 5753 5748 5743 5737 5732 5727 5723 5719 5716 5712 5708 5704 5699 5693 5689 5687 5690 5688 5685 5682 5678 5672 5665 5662 5660 5660 5658 5654 5652 5650 5648 5644 5641 5636 5632 5628 5624 5621 5620 5617
5763 5758 5754 5749 5746 5740 5733 5728 5723 5719 5715 5711 5706 5703 5700 5695 5690 5685 5682 5680 5678 5678 5675 5672 5666 5659 5656 5653 5652 5648 5646 5644 5646 5643 5639 5635 5631 5627 5622 5618 5613 5610 5606
5755 5751 5748 5744 5740 5735 5729 5724 5719 5716 5714 5711 5706 5702 5698 5694 5687 5680 5677 5674 5671 5670 5668 5662 5657 5652 5649 5647 5643 5641 5640 5641 5640 5636 5633 5629 5625 5620 5616 5611 5606 5602 5598
5748 5745 5742 5738 5734 5730 5726 5723 5719 5715 5712 5709 5704 5700 5695 5691 5686 5681 5676 5672 5666 5664 5662 5655 5650 5646 5644 5642 5638 5637 5636 5635 5633 5630 5627 5623 5619 5614 5610 5607 5603 5599 5595
5742 5739 5736 5733 5730 5724 5721 5718 5715 5712 5710 5705 5702 5698 5692 5687 5681 5675 5673 5671 5668 5664 5658 5654 5650 5646 5643 5640 5637 5634 5631 5629 5625 5623 5620 5616 5613 5609 5604 5601 5596 5594 5590
5736 5734 5732 5730 5725 5721 5717 5711 5705 5704 5698 5694 5691 5689 5687 5680 5674 5669 5665 5661 5658 5654 5652 5652 5648 5645 5641 5638 5634 5630 5627 5623 5620 5617 5613 5610 5606 5603 5599 5595 5591 5587 5584
5733 5730 5728 5726 5722 5718 5714 5710 5704 5696 5690 5687 5684 5680 5677 5672 5668 5663 5659 5655 5651 5648 5649 5648 5645 5641 5638 5634 5631 5627 5622 5618 5614 5611 5607 5603 5600 5596 5593 5589 5586 5582 5578
5728 5724 5722 5721 5718 5714 5711 5707 5705 5700 5694 5689 5681 5675 5671 5666 5662 5658 5653 5649 5649 5645 5647 5645 5641 5637 5634 5629 5625 5621 5617 5613 5608 5604 5601 5597 5594 5590 5587 5583 5580 5575 5573
5723 5721 5718 5716 5713 5710 5707 5704 5701 5698 5695 5690 5684 5675 5666 5661 5656 5652 5648 5651 5651 5647 5644 5641 5637 5633 5629 5624 5619 5615 5611 5607 5603 5599 5596 5590 5588 5584 5581 5577 5574 5567 5564
5716 5713 5711 5710 5707 5705 5702 5699 5697 5694 5691 5688 5683 5678 5669 5662 5659 5653 5649 5649 5648 5645 5641 5637 5632 5628 5623 5618 5613 5609 5605 5602 5597 5593 5590 5586 5582 5578 5574 5570 5568 5565 5562
5710 5707 5702 5703 5703 5701 5699 5696 5693 5690 5687 5684 5680 5676 5666 5666 5662 5656 5651 5647 5644 5641 5636 5631 5626 5621 5617 5611 5607 5603 5599 5596 5591 5587 5583 5579 5575 5571 5568 5565 5562 5559 5557
5704 5703 5701 5700 5698 5696 5694 5691 5688 5685 5682 5678 5674 5669 5659 5660 5658 5653 5648 5644 5640 5635 5630 5625 5620 5616 5611 5606 5601 5597 5593 5589 5585 5580 5575 5572 5568 5565 5563 5559 5556 5553 5550
5699 5697 5695 5694 5692 5688 5686 5686 5683 5680 5677 5673 5669 5664 5658 5654 5652 5648 5644 5639 5635 5630 5625 5619 5614 5610 5604 5598 5594 5590 5585 5581 5576 5572 5568 5564 5562 5559 5556 5553 5549 5546 5544
5694 5692 5690 5688 5685 5684 5682 5679 5677 5675 5671 5668 5663 5659 5654 5650 5646 5642 5638 5633 5628 5624 5618 5613 5608 5603 5597 5592 5587 5582 5577 5571 5567 5564 5560 5558 5555 5553 5550 5546 5543 5541 5538
5688 5686 5685 5683 5680 5679 5677 5674 5671 5667 5664 5660 5657 5652 5648 5644 5639 5635 5631 5627 5621 5616 5611 5606 5601 5596 5590 5585 5580 5574 5568 5563 5559 5555 5553 5552 5549 5546 5543 5540 5537 5534 5531
5682 5680 5679 5677 5674 5672 5670 5667 5664 5660 5657 5654 5650 5645 5641 5636 5632 5628 5624 5619 5614 5609 5604 5599 5594 5588 5583 5578 5572 5566 5561 5556 5552 5548 5545 5544 5542 5539 5535 5533 5530 5527 5525